Total_Precipitation_Accumulation
1.31 1.51 1.95 1.84 1.68 1.57 1.35 1.37 1.44 1.44 1.57 1.57 1.46 1.39 1.48 1.64 1.69 1.78 1.84 1.95 2.10 2.20 2.24 2.23 2.22 2.21 2.18 2.15 2.22 2.15 2.01 1.92 1.95 2.03 2.10 2.04 2.14 2.30 2.62 2.90 2.98 2.26 1.90
0.80 1.06 1.59 1.53 1.42 1.54 1.42 1.40 1.37 1.36 1.45 1.49 1.37 1.39 1.47 1.52 1.55 1.75 1.87 1.96 2.09 2.25 2.12 2.06 2.11 2.14 2.14 2.10 2.05 2.03 1.94 2.02 2.24 2.56 2.72 2.44 2.53 2.56 2.60 2.57 2.76 2.34 2.06
0.58 0.73 1.03 1.33 1.33 1.53 1.53 1.40 1.40 1.34 1.35 1.37 1.36 1.41 1.49 1.57 1.62 1.67 1.69 1.76 2.01 2.12 1.96 1.84 1.93 2.02 2.04 2.15 2.04 1.96 2.00 2.22 2.59 3.13 3.39 2.50 2.04 2.45 2.43 2.31 2.34 2.22 1.98
0.53 0.52 0.58 1.04 1.39 1.61 1.56 1.43 1.36 1.35 1.36 1.30 1.42 1.42 1.42 1.59 1.74 1.80 1.68 1.71 1.82 1.84 1.79 1.79 1.73 1.96 2.05 2.02 1.98 2.03 2.11 2.24 2.68 3.15 3.06 2.09 1.54 1.94 2.10 1.94 2.05 2.05 2.01
0.48 0.45 0.64 1.01 1.24 1.39 1.45 1.38 1.27 1.34 1.44 1.42 1.37 1.29 1.37 1.48 1.67 1.72 1.69 1.71 1.73 1.79 1.80 1.84 1.72 1.98 2.04 1.95 1.96 2.04 2.17 2.32 2.64 2.62 2.05 2.10 2.10 1.97 1.75 1.74 2.01 2.16 2.07
0.59 0.55 0.76 1.08 1.12 1.22 1.29 1.28 1.26 1.37 1.50 1.46 1.40 1.38 1.48 1.53 1.62 1.56 1.56 1.61 1.57 1.74 1.83 1.91 1.89 2.02 1.98 1.90 1.97 2.03 2.11 2.31 2.24 1.64 1.41 1.77 1.95 1.98 1.85 1.96 2.04 2.09 2.03
0.72 0.82 0.95 1.13 1.12 1.16 1.21 1.28 1.33 1.38 1.43 1.49 1.45 1.36 1.45 1.48 1.53 1.51 1.51 1.54 1.53 1.70 1.77 1.89 2.02 2.09 2.05 2.13 2.14 2.14 2.16 2.19 1.78 1.36 1.38 1.74 1.88 1.91 2.17 2.29 2.17 2.10 2.02
1.06 1.12 1.21 1.30 1.26 1.27 1.32 1.44 1.50 1.44 1.39 1.45 1.45 1.39 1.33 1.40 1.43 1.39 1.40 1.40 1.41 1.59 1.72 1.88 2.04 2.03 2.05 2.15 2.09 1.99 2.01 1.77 1.31 1.33 1.47 1.65 1.60 1.76 2.17 2.41 2.38 2.39 2.28
1.43 1.45 1.38 1.33 1.30 1.38 1.52 1.63 1.56 1.45 1.46 1.53 1.52 1.42 1.36 1.40 1.34 1.24 1.25 1.35 1.36 1.55 1.78 1.96 1.98 1.95 1.96 2.12 2.06 1.94 1.99 1.83 1.42 1.53 1.49 1.60 1.58 1.79 2.04 2.26 2.30 2.39 2.35
1.83 1.71 1.50 1.33 1.32 1.23 1.28 1.50 1.50 1.47 1.56 1.61 1.61 1.56 1.60 1.56 1.38 1.39 1.34 1.41 1.44 1.64 1.73 1.75 1.82 1.88 1.91 2.07 2.05 2.07 2.07 1.85 1.48 1.57 1.76 1.59 1.68 1.97 2.09 2.08 2.20 2.39 2.38
2.24 1.81 1.45 1.37 1.44 1.38 1.26 1.31 1.70 1.79 1.79 1.85 1.98 2.04 2.17 2.14 1.74 1.72 1.47 1.64 1.79 1.87 1.86 1.96 2.06 2.15 2.30 2.26 2.26 2.26 2.09 1.77 1.77 1.87 2.14 1.77 1.79 2.16 2.33 2.28 2.17 2.12 2.14
2.25 2.17 1.85 1.60 1.49 1.52 1.41 1.59 2.19 2.20 2.20 2.42 2.66 2.53 2.66 2.47 2.20 1.59 1.60 2.06 2.15 2.25 2.39 2.68 2.87 2.59 2.51 2.43 2.62 2.93 2.28 1.97 1.96 1.94 2.03 1.87 2.04 2.46 2.69 2.56 2.22 2.00 1.99
2.19 2.08 2.12 1.95 1.78 1.77 1.93 1.89 2.14 2.47 2.58 2.68 2.66 2.64 2.76 2.29 1.92 1.74 2.02 2.46 2.48 2.56 2.69 2.95 3.11 2.55 2.67 3.28 3.34 3.09 2.73 2.50 2.35 2.34 2.34 2.34 2.50 2.90 3.11 2.92 2.65 2.39 2.16
2.46 2.31 2.55 2.47 2.40 2.43 2.28 2.26 2.12 2.17 2.21 2.27 2.38 2.29 2.41 2.45 2.33 2.34 2.46 2.56 2.70 2.89 3.20 3.03 3.17 3.15 3.33 3.34 3.28 3.27 3.17 3.02 2.81 2.87 3.18 3.05 3.00 3.12 3.44 3.28 2.97 2.84 2.63
2.90 2.95 3.07 3.11 3.24 3.06 2.82 2.67 2.22 2.26 2.15 2.06 2.07 2.04 2.26 2.57 2.64 2.79 2.57 2.69 2.49 2.61 2.95 3.27 3.32 3.52 3.78 3.73 3.28 3.03 3.08 3.03 2.75 2.70 2.95 3.24 3.29 3.22 3.45 3.57 3.25 3.08 3.01
3.49 3.71 3.67 3.67 3.71 3.54 3.15 2.92 2.64 2.30 2.32 2.10 2.07 2.10 2.59 2.85 2.85 2.94 2.79 2.78 2.51 2.53 2.83 3.19 3.29 3.63 3.72 3.79 3.28 2.93 2.90 2.88 2.62 2.51 2.62 3.14 3.22 3.08 3.20 3.52 3.63 3.55 3.38
4.16 4.36 4.54 4.41 4.10 4.17 3.82 3.08 2.57 2.29 2.14 2.26 2.39 2.45 2.74 2.87 3.08 3.23 3.14 2.77 2.56 2.67 2.89 2.92 3.08 3.59 3.48 3.46 3.35 3.24 3.17 3.00 2.73 2.68 2.61 2.81 2.71 2.82 3.04 3.22 3.51 3.75 3.80
4.71 5.13 5.33 4.91 4.80 4.83 4.50 3.90 3.32 2.97 2.80 2.83 2.85 2.68 2.50 2.66 2.77 3.02 2.78 2.40 2.49 2.71 2.91 2.94 2.94 3.33 3.50 3.55 3.62 3.47 3.30 3.09 2.71 2.62 2.62 2.59 2.57 2.31 2.60 2.95 3.32 3.60 4.01
4.98 5.71 6.10 6.31 5.80 5.40 4.84 4.41 3.88 3.57 3.39 3.13 2.86 2.61 2.31 2.08 1.98 2.28 2.24 2.17 2.19 2.47 2.54 2.26 2.51 2.83 3.09 3.24 3.04 2.96 2.65 2.45 2.33 2.22 2.21 2.14 2.33 2.45 2.57 2.60 2.96 3.24 3.87
5.08 5.79 6.21 6.45 5.93 5.21 4.92 4.89 4.54 3.97 3.52 3.14 2.81 2.61 2.22 2.05 1.83 2.06 2.06 1.89 1.84 2.05 2.15 2.28 2.61 2.70 2.62 2.70 2.39 2.38 2.35 2.13 2.12 2.09 1.93 1.94 2.07 2.03 2.24 2.48 2.81 2.66 3.21
5.44 6.10 6.24 5.99 5.30 4.80 4.39 4.14 3.87 3.62 3.35 2.88 2.50 2.27 2.16 2.04 1.99 2.23 2.02 2.03 1.87 1.91 1.98 2.03 2.27 2.39 2.21 2.38 2.72 2.54 2.23 2.00 1.99 1.92 1.83 1.93 1.95 2.01 2.17 2.54 2.80 2.88 2.79
5.00 5.36 5.45 5.08 4.33 3.84 3.60 3.54 3.28 3.09 2.78 2.57 2.35 2.31 2.00 1.92 1.95 1.87 2.03 1.87 1.78 1.98 1.96 2.03 2.25 2.25 2.04 2.20 2.62 2.77 2.50 2.42 2.01 1.48 1.67 1.78 1.85 2.11 2.17 2.16 2.40 2.86 2.89
4.48 4.27 3.97 3.79 3.40 3.29 3.24 3.06 2.84 2.81 2.55 2.39 2.18 2.09 1.80 1.63 1.64 1.70 1.71 1.66 1.76 1.65 1.85 2.00 2.11 2.32 2.32 2.09 2.08 2.49 2.45 2.38 2.16 1.67 1.44 1.52 1.82 2.11 2.07 2.11 2.15 2.47 2.76
3.50 3.21 3.02 2.95 2.88 2.82 2.74 2.64 2.35 2.22 2.20 2.05 1.97 1.99 1.86 1.66 1.64 1.64 1.60 1.71 1.73 1.58 1.86 1.62 1.77 2.11 2.29 2.13 2.10 2.00 2.04 2.20 2.24 2.09 1.80 1.53 1.68 1.82 1.98 1.96 2.10 2.40 2.66
2.25 2.41 2.48 2.61 2.73 2.64 2.58 2.57 2.49 2.20 2.16 2.13 2.12 2.22 2.08 1.86 1.67 1.48 1.56 1.75 1.79 1.65 1.69 1.69 1.90 1.91 1.99 2.03 2.00 1.96 2.11 2.17 2.00 2.04 2.03 1.88 1.78 1.52 1.67 1.94 2.15 2.30 2.48
1.56 1.78 1.99 2.11 2.26 2.43 2.47 2.31 2.23 2.18 2.22 2.26 2.20 2.02 1.83 1.70 1.59 1.48 1.58 1.86 1.85 1.81 1.76 1.73 1.76 1.80 1.99 2.10 2.04 1.92 2.02 2.13 2.11 2.20 1.98 1.91 1.95 1.73 1.86 2.12 2.20 2.26 2.25